OSCAR 7 (AO-7) 1 07530U 74089B 26126.50926965 -.00000050 00000+0 -21826-4 0 9991 2 07530 101.9922 139.3188 0012060 209.1080 305.8716 12.53697414355299 PHASE 3B (AO-10) 1 14129U 83058B 26124.66605148 -.00000182 00000+0 00000+0 0 9992 2 14129 25.8942 226.8095 6026198 103.6723 326.5093 2.05871742294598 UOSAT 2 (UO-11) 1 14781U 84021B 26126.40399271 .00001246 00000+0 13267-3 0 9992 2 14781 97.8031 92.4567 0006819 333.3905 26.6962 14.90685355250907 LUSAT (LO-19) 1 20442U 90005G 26126.04149914 .00000115 00000+0 57903-4 0 9999 2 20442 98.8877 146.6807 0011043 335.1376 24.9274 14.34109946896350 EYESAT A (AO-27) 1 22825U 93061C 26126.46490183 .00000096 00000+0 53506-4 0 9997 2 22825 98.6895 193.8891 0007693 216.3637 143.7024 14.30930890701037 ITAMSAT (IO-26) 1 22826U 93061D 26126.45673343 .00000098 00000+0 53917-4 0 9996 2 22826 98.6843 193.7943 0008513 199.0684 161.0182 14.31356568701346 RADIO ROSTO (RS15) 1 23439U 94085A 26126.34342427 -.00000035 00000+0 20426-3 0 9998 2 23439 64.8207 10.8906 0154781 11.5143 348.9258 11.27583833291186 JAS-2 (FO-29) 1 24278U 96046B 26126.31526696 -.00000038 00000+0 -16652-5 0 9990 2 24278 98.5286 340.9120 0349410 204.9476 153.4419 13.53272324467506 TECHSAT 1B (GO-32) 1 25397U 98043D 26126.41017076 .00000062 00000+0 47164-4 0 9996 2 25397 99.0064 118.1180 0001345 25.8841 334.2404 14.24420157445381 ISS (ZARYA) 1 25544U 98067A 26126.52211723 .00006761 00000+0 13018-3 0 9995 2 25544 51.6304 146.3415 0007423 29.8733 330.2678 15.49120518565295 PCSAT (NO-44) 1 26931U 01043C 26126.32168066 .00000123 00000+0 76660-4 0 9992 2 26931 67.0521 352.5556 0006357 263.8486 96.1892 14.31939838284450 SAUDISAT 1C (SO-50) 1 27607U 02058C 26126.34593022 .00001243 00000+0 16364-3 0 9994 2 27607 64.5522 258.4302 0075638 270.0952 89.1487 14.82957980258258 CUTE-1 (CO-55) 1 27844U 03031E 26125.95823024 .00000291 00000+0 14490-3 0 9993 2 27844 98.6750 135.0469 0008601 313.5681 46.4783 14.24309456185668 CUBESAT XI-IV (CO-57) 1 27848U 03031J 26126.48783968 .00000238 00000+0 12363-3 0 9996 2 27848 98.6783 135.3163 0008811 332.1017 27.9688 14.23598409185446 MOZHAETS 4 (RS22) 1 27939U 03042A 26126.51996869 .00000854 00000+0 14000-3 0 9993 2 27939 98.3467 309.7040 0012211 45.5056 38.5528 14.73394481209415 CUBESAT XI-V 1 28895U 05043F 26126.41010510 .00001374 00000+0 22436-3 0 9997 2 28895 98.2939 281.1690 0013550 343.2513 16.8244 14.72522493 95600 CUTE-1.7+APD II (CO-65) 1 32785U 08021C 26126.47975881 .00004910 00000+0 31398-3 0 9992 2 32785 97.8270 107.0508 0009477 159.8804 200.2799 15.09064229978903 SEEDS II (CO-66) 1 32791U 08021J 26125.48367313 .00019885 00000+0 65895-3 0 9990 2 32791 97.7528 121.3956 0005097 99.4422 260.7394 15.31314764980755 YUBILEINY (RS30) 1 32953U 08025A 26126.49129958 .00000085 00000+0 54026-3 0 9993 2 32953 82.5076 21.3758 0020496 43.9288 316.3417 12.43178150814519 KKS-1 (KISEKI) 1 33499U 09002H 26126.49341824 .00001450 00000+0 18511-3 0 9999 2 33499 98.1192 48.2786 0009284 69.0722 291.1483 14.83016665930015 SWISSCUBE 1 35932U 09051B 26126.50125404 .00001060 00000+0 21929-3 0 9997 2 35932 98.4060 33.6613 0006683 354.6320 5.4808 14.62401020883069 BEESAT-1 1 35933U 09051C 26126.28381863 .00000859 00000+0 18256-3 0 9990 2 35933 98.3988 33.1625 0005532 12.6174 347.5164 14.61651657883063 ITUPSAT1 1 35935U 09051E 26126.44365897 .00000784 00000+0 17208-3 0 9992 2 35935 98.4074 32.5607 0007906 17.9694 342.1784 14.60377475882641 XIWANG-1 (HOPE-1) 1 36122U 09072B 26126.52036752 .00000222 00000+0 69849-3 0 9993 2 36122 100.4008 81.0243 0007307 334.1916 25.8831 13.16439451787524 O/OREOS (USA 219) 1 37224U 10062C 26126.53837969 .00001900 00000+0 18569-3 0 9995 2 37224 71.9698 174.6668 0013429 153.1439 207.0430 14.93576111110425 JUGNU 1 37839U 11058B 26126.44976611 .00000429 00000+0 84360-4 0 9999 2 37839 19.9597 201.9963 0018571 336.1383 121.6989 14.13764438753115 SRMSAT 1 37841U 11058D 26125.89120411 .00000415 00000+0 81577-4 0 9991 2 37841 19.9732 315.4812 0011781 98.6658 33.5392 14.11566136751833 STRAND-1 1 39090U 13009E 26125.44711693 .00000308 00000+0 11814-3 0 9993 2 39090 98.3915 306.7356 0008675 7.2867 352.8445 14.37138110690920 ZACUBE-1 (TSHEPISOSAT) 1 39417U 13066B 26126.34327709 .00004908 00000+0 38330-3 0 9992 2 39417 97.8129 88.4546 0042844 33.8409 326.5535 15.00863320674459 GOMX-1 1 39430U 13066Q 26126.50982851 .00001620 00000+0 24986-3 0 9990 2 39430 97.6509 329.5994 0128062 210.8225 148.5420 14.69299364663795 CUBEBUG-2 (LO-74) 1 39440U 13066AA 26126.32582281 .00003298 00000+0 30910-3 0 9991 2 39440 97.8883 75.1462 0058373 164.6597 195.6410 14.93458213670744 FUNCUBE-1 (AO-73) 1 39444U 13066AE 26126.35288170 .00007348 00000+0 46268-3 0 9991 2 39444 97.8256 96.9503 0036172 349.2102 10.8346 15.08943144673350 UWE-3 1 39446U 13066AG 26126.30161535 .00004405 00000+0 38101-3 0 9991 2 39446 97.8689 82.1143 0051361 98.8871 261.8170 14.96685817671319 UNISAT-6 1 40012U 14033C 26126.37687598 .00003633 00000+0 39460-3 0 9997 2 40012 97.7834 279.8443 0044719 204.6077 155.3007 14.88004389639942 DUCHIFAT-1 1 40021U 14033M 26126.40884995 .00065811 00000+0 88818-3 0 9998 2 40021 98.0507 179.9643 0005301 204.5945 155.5057 15.57562582649233 QB50P1 1 40025U 14033R 26126.48798498 .00007987 00000+0 40034-3 0 9990 2 40025 98.0985 134.7309 0009098 20.7068 339.4530 15.17621615646703 LILACSAT-2 1 40908U 15049K 26126.52243185 .00016849 00000+0 30077-3 0 9994 2 40908 97.4702 161.8137 0008249 57.0538 303.1505 15.50094534589296 FOX-1A (AO-85) 1 40967U 15058D 26126.22610753 .00003470 00000+0 31610-3 0 9995 2 40967 64.7767 49.3591 0128740 73.0415 288.4761 14.90721848107310 CAS-2T & KS-1Q 1 41847U 16066G 26126.19702208 .00000742 00000+0 11452-3 0 9997 2 41847 98.3826 202.4077 0340900 256.9287 99.3651 14.44582560498732 RADFXSAT (FOX-1B) 1 43017U 17073E 26126.19328906 .00009217 00000+0 40516-3 0 9995 2 43017 97.4752 354.2830 0154093 113.3782 248.3742 15.11958086459049 DIWATA-2B 1 43678U 18084H 26126.48705624 .00002625 00000+0 21465-3 0 9997 2 43678 98.1080 320.9128 0012461 314.9304 45.0907 15.00247230409966 ES'HAIL 2 1 43700U 18090A 26126.48121241 .00000152 00000+0 00000+0 0 9998 2 43700 0.0125 273.4910 0001646 160.4904 349.4080 1.00271961 27252 FOX-1CLIFF (AO-95) 1 43770U 18099N 26126.51077977 .00010300 00000+0 40483-3 0 9993 2 43770 97.4406 186.9349 0010272 130.5613 229.6521 15.25821019406869 ITASAT 1 43786U 18099AE 26126.11887155 .00006637 00000+0 32399-3 0 9998 2 43786 97.4057 178.4805 0014042 135.2672 224.9698 15.18519735406524 JY1SAT (JO-97) 1 43803U 18099AX 26126.12327009 .00017744 00000+0 56955-3 0 9991 2 43803 97.4153 188.8507 0006925 70.9167 289.2824 15.32346816407182 UWE-4 1 43880U 18111E 26126.23983650 .00026504 00000+0 58844-3 0 9996 2 43880 97.5862 52.7872 0010646 110.6208 249.6182 15.43629688404303 TIANYAN 01 1 44881U 19093C 26126.51178780 .00001239 00000+0 14609-3 0 9998 2 44881 97.7541 199.7589 0012422 219.5488 140.4823 14.86454737345223 RS-44 & BREEZE-KM R/B 1 44909U 19096E 26126.41261568 .00000023 00000+0 52284-4 0 9990 2 44909 82.5249 7.4674 0216486 241.9477 115.9582 12.79748118297004 SALSAT 1 46495U 20068K 26126.40527816 .00007590 00000+0 27037-3 0 9996 2 46495 97.8867 126.9486 0011695 90.3760 269.8819 15.29190501308971 XW-3 (CAS-9) 1 50466U 21131B 26126.54131514 .00000478 00000+0 16148-3 0 9991 2 50466 98.4958 219.1614 0003421 207.8721 152.2285 14.41317784229117 GREENCUBE (IO-117) 1 53109U 22080E 26125.85119694 -.00000003 00000+0 00000+0 0 9991 2 53109 70.1444 312.9759 0008857 299.6529 60.3249 6.42583318 89344 UMKA 1 (RS40S) 1 57172U 23091G 26126.50376867 .00005981 00000+0 27761-3 0 9994 2 57172 97.5074 185.3704 0011254 263.4231 96.5723 15.20351303157679 CUBESX-HSE 3 (RS42S) 1 57178U 23091N 26126.53083189 .00011692 00000+0 40221-3 0 9997 2 57178 97.5109 191.6220 0009867 233.5700 126.4631 15.30188941158054 MONITOR-3 (RS58S) 1 57180U 23091Q 26126.53200179 .00009068 00000+0 34417-3 0 9994 2 57180 97.5102 189.6948 0010580 241.7987 118.2183 15.27023147157935 MONITOR-4 (RS57S) 1 57182U 23091S 26126.51365601 .00009274 00000+0 35088-3 0 9990 2 57182 97.5097 189.6447 0010527 242.0841 117.9332 15.27120843157931 MONITOR-2 (RS39S) 1 57184U 23091U 26126.47403301 .00004195 00000+0 20632-3 0 9993 2 57184 97.5096 185.0325 0009727 254.9824 105.0334 15.18530573157621 SVYATOBOR 1 (RS60S) 1 57187U 23091X 26126.49253049 .00007894 00000+0 31034-3 0 9997 2 57187 97.5109 190.0974 0008394 231.8593 128.1889 15.25918474157956 VIZARD-METEO (RS38S) 1 57189U 23091Z 26126.50076118 .00014191 00000+0 42334-3 0 9994 2 57189 97.5105 195.1910 0007035 207.5012 152.5859 15.34732572158296 POLYTECH-UNIVERSE 3 (R*) 1 57191U 23091AB 26126.50668416 .00004955 00000+0 24144-3 0 9991 2 57191 97.5071 184.5701 0013937 274.3329 85.6313 15.18728270157621 UTMN 2 (RS27S) 1 57203U 23091AP 26126.50627714 .00010697 00000+0 35884-3 0 9994 2 57203 97.5103 193.1795 0007457 216.5134 143.5599 15.31050055158166 KUZGTU 1 (RS47S) 1 57217U 23091AV 26126.48645694 .00009480 00000+0 33956-3 0 9999 2 57217 97.5082 190.5686 0009926 238.0581 121.9694 15.28926781158008 SONATE-2 1 59112U 24043Q 26126.36776903 .00031240 00000+0 45228-3 0 9992 2 59112 97.5496 274.3124 0006221 359.7001 0.4249 15.55820028121389 MESAT1 1 60209U 24125G 26126.56567547 .00041237 00000+0 52675-3 0 9997 2 60209 97.2345 343.2239 0010213 21.2713 338.8966 15.59090455103075 OOV-CUBE (TUBSAT-30) 1 60240U 24128F 26126.13279498 .00002350 00000+0 18708-3 0 9995 2 60240 61.9965 12.1912 0049591 124.5310 236.0477 15.02564268 99792 COLIBRI-S (RS67S) 1 61746U 24199M 26126.52986313 .00018805 00000+0 38574-3 0 9994 2 61746 97.3047 0.0483 0010629 76.9397 283.3038 15.46030436130979 HORS 3 (RS81S) 1 61753U 24199U 26126.47816310 .00027703 00000+0 45663-3 0 9999 2 61753 97.3033 1.5677 0008917 82.3453 277.8812 15.52234015131081 HORS 4 (RS82S) 1 61754U 24199V 26126.48741983 .00036736 00000+0 52630-3 0 9992 2 61754 97.2982 2.5393 0008076 79.6392 280.5772 15.56055847131159 HORIZON (RS59S) 1 61757U 24199Y 26126.24482170 .00708332 23814-3 12567-2 0 9993 2 61757 97.2807 8.5927 0004449 145.4657 214.6912 16.01911296131528 ARCTICSAT 1 (RS74S) 1 61762U 24199AD 26126.51864422 .00195560 00000+0 93368-3 0 9993 2 61762 97.2923 7.6347 0004696 89.9467 270.2340 15.82277135131487 SIT-2086 1 61764U 24199AF 26126.47049392 .00019659 00000+0 34587-3 0 9993 2 61764 97.3003 2.1758 0008566 67.4038 292.8120 15.50468400127966 HYPERVIEW 1G (RS66S) 1 61772U 24199AP 26126.52850485 .00079819 00000+0 74511-3 0 9996 2 61772 97.2953 4.4395 0008356 80.8944 279.3262 15.67019176128139 ALTAIR (RS65S) 1 61779U 24199AW 26126.56506684 .00009111 00000+0 25911-3 0 9994 2 61779 97.3078 356.2035 0014852 95.7697 264.5241 15.36258768130721 ASRTU-1 (AO-123) 1 61781U 24199AY 26126.51890845 .00007515 00000+0 22230-3 0 9994 2 61781 97.3051 355.5724 0015919 97.9861 262.3189 15.35071859127539 TUSUR GO (RS78S) 1 61782U 24199AZ 26126.43164006 .04403470 24199-5 13374-2 0 9992 2 61782 97.2767 8.1124 0006855 226.4632 133.6092 16.26866225128378 SAMSAT-IONOSPHERE (RS7*) 1 61784U 24199BB 26126.50887161 .00037238 00000+0 57006-3 0 9997 2 61784 97.3006 1.5178 0011142 81.1406 279.1109 15.54203021131089 RTU MIREA 1 (RS51S) 1 61785U 24199BC 26126.48599580 .00042892 00000+0 59421-3 0 9995 2 61785 97.2996 2.1384 0011025 79.5245 280.7252 15.56899530127973 TEVEL2-4 1 63213U 25052D 26126.42979774 .00015997 00000+0 50083-3 0 9994 2 63213 97.3942 22.7911 0000738 197.7417 162.3799 15.33188881 63717 TEVEL2-5 1 63214U 25052E 26126.44590235 .00016249 00000+0 51110-3 0 9991 2 63214 97.3939 22.7662 0000756 197.8878 162.2338 15.33036607 63715 TEVEL2-6 1 63215U 25052F 26126.45722007 .00016454 00000+0 51812-3 0 9994 2 63215 97.3944 22.7627 0000806 211.2646 148.8548 15.32999099 63718 TEVEL2-1 1 63217U 25052H 26126.21133177 .00016488 00000+0 52723-3 0 9993 2 63217 97.3920 22.1890 0000437 275.5971 84.5221 15.32506242 63666 TEVEL2-3 1 63218U 25052J 26126.46852970 .00015924 00000+0 50846-3 0 9998 2 63218 97.3920 22.4627 0000445 270.4066 89.7125 15.32561274 63707 TEVEL2-2 1 63219U 25052K 26126.27713125 .00016418 00000+0 52488-3 0 9999 2 63219 97.3918 22.2562 0000498 277.1828 82.9357 15.32514570 63674 TEVEL2-9 1 63237U 25052AD 26125.67911195 .00017826 00000+0 60369-3 0 9990 2 63237 97.3982 21.1221 0004278 302.6918 57.3910 15.30631391 63523 TEVEL2-7 1 63238U 25052AE 26126.43158110 .00014109 00000+0 48209-3 0 9996 2 63238 97.3983 21.8047 0004338 299.1168 60.9639 15.30392407 63634 TEVEL2-8 1 63239U 25052AF 26126.24320890 .00015003 00000+0 51282-3 0 9991 2 63239 97.3983 21.5951 0004304 300.9661 59.1156 15.30368656 63608 HADES-ICM 1 63492U 25052BN 26125.23154483 .00799001 00000+0 30672-2 0 9999 2 63492 97.3785 28.6812 0006494 160.2566 199.8957 15.85446468 64000 INNOSAT 16 (RS92S7) 1 64878U 25155C 26126.53872919 .00005722 00000+0 23191-3 0 9996 2 64878 97.4546 93.8226 0009708 343.4332 16.6587 15.25007646 74321 GEOSCAN 6 (RS92S6) 1 64879U 25155D 26126.51350431 .00009648 00000+0 34111-3 0 9990 2 64879 97.4541 94.9385 0006651 340.8197 19.2791 15.29369692 74398 GEOSCAN 1 (RS92S1) 1 64880U 25155E 26126.53123334 .00010435 00000+0 36275-3 0 9993 2 64880 97.4538 95.0703 0006579 341.0497 19.0498 15.29900289 74404 239ALFEROV (RS61S) 1 64881U 25155F 26126.49134477 .00012728 00000+0 41617-3 0 9992 2 64881 97.4540 95.4602 0005988 342.4592 17.6442 15.31835699 74424 GEOSCAN 2 (RS92S2) 1 64890U 25155Q 26126.53240990 .00010056 00000+0 34672-3 0 9990 2 64890 97.4537 95.2072 0005463 326.6713 33.4183 15.30184884 74415 GEOSCAN 5 (RS92S5) 1 64891U 25155R 26126.48904884 .00012865 00000+0 41645-3 0 9992 2 64891 97.4533 95.5793 0005228 353.6980 6.4195 15.32159673 74435 GEOSCAN 4 (RS92S4) 1 64892U 25155S 26126.47706941 .00013186 00000+0 42508-3 0 9992 2 64892 97.4536 95.6047 0005259 354.7241 5.3944 15.32288424 74435 GEOSCAN 3 (RS92S3) 1 64893U 25155T 26126.52797425 .00016876 00000+0 51449-3 0 9999 2 64893 97.4525 95.9741 0004958 357.9071 2.2150 15.34016073 74468 INNOSAT 3 (RS92S0) 1 64894U 25155U 26126.53005987 .00031388 00000+0 76020-3 0 9993 2 64894 97.4484 97.1313 0003839 12.4155 347.7185 15.41032081 74544 KNACKSAT-2 1 67683U 98067XZ 26126.33918814 .00035738 00000+0 49824-3 0 9999 2 67683 51.6273 144.3710 0012720 43.0910 317.1075 15.56471135 13753